ストーンハウス彗星

C/1998 H1 ( Stonehouse )

English version
Home page
Updated on December 31, 2016

---------------------------------------------------------------------

・ プロフィール

発見日 1998年4月22日
発見光度 12等
発見者 Patrick L. Stonehouse

・ 写真集

・ 軌道要素

   The following improved orbital elements, by Kenji Muraoka are 
  from 352 observations  1998 Apr. 26  to  July 20, perturbations
  by 9 Planets, Moon and 5 minor planets were taken into account.
   The mean residual is +/- 0.68 arc seconds.

      Epoch  =  1998 Apr. 17.0  TT       JDT = 2450920.5
          T  =  1998 Apr. 14.42482       +/- 0.00074 (m.e.) TT
       Peri. =    1.32431                +/- 0.00109
       Node  =  222.10887                +/- 0.00029   (2000.0)
       Incl. =  104.69219                +/- 0.00113
          q  =    1.4872838              +/- 0.0000145 AU
          e  =    0.9979059              +/- 0.0001737
        1/a  =   +0.0014080              +/- 0.0001168 1/AU
        ( P  =  18927 years )

・ 星図

・ 光度変化

        m1 = 10.0 + 5 logΔ + 15.0 log r

---------------------------------------------------------------------

軌道要素は村岡健治氏の計算によるものです。
星図は StellaNavigator Ver.2.0 for Windows (アストロアーツ 編著 / アスキー出版局刊) で作成したものです。
光度グラフはComet for Windowsで作成したものです。

---------------------------------------------------------------------

Copyright(C) Seiichi Yoshida (comet@aerith.net). All rights reserved.